Location: Shepherdstown, WV
(39.4326°N, 77.8042°W)
Time: 00:00:46
(UTC-04:00)

Transit 4A - All Passes

Search period start: 06 August 2021 00:00
Search period end: 16 August 2021 00:00
Orbit: 872 x 972 km, 66.8° (Epoch: 05 August)

Date Brightness Start Highest point End Pass type
(mag) Time Alt. Az. Time Alt. Az. Time Alt. Az.
06 Aug - 00:26:27 10° SW 00:32:04 45° NW 00:37:40 10° NNE visible
06 Aug - 07:43:53 10° N 07:48:53 28° NE 07:53:55 10° ESE daylight
06 Aug - 09:29:46 10° NW 09:35:26 50° WSW 09:41:13 10° S daylight
06 Aug - 22:49:38 10° S 22:55:08 42° ESE 23:00:34 10° NE visible
07 Aug - 00:36:22 10° WSW 00:41:32 31° NW 00:46:42 10° N visible
07 Aug - 07:52:53 10° NNW 07:58:23 39° NE 08:03:58 10° ESE daylight
07 Aug - 09:39:24 10° NW 09:44:35 33° WSW 09:49:52 10° S daylight
07 Aug - 22:58:29 10° SSW 23:04:19 64° ESE 23:10:05 10° NE visible
08 Aug - 00:46:37 10° W 00:51:06 22° NW 00:55:35 10° N visible
08 Aug - 06:18:13 10° NNE 06:20:10 12° NE 06:22:07 10° ENE daylight
08 Aug - 08:01:59 10° NNW 08:07:48 57° ENE 08:13:42 10° SE daylight
08 Aug - 09:49:20 10° WNW 09:53:40 21° WSW 09:58:04 10° SSW daylight
08 Aug - 21:25:37 10° SE 21:28:03 13° ESE 21:30:29 10° ENE visible
08 Aug - 23:07:39 10° SSW 23:13:34 86° WNW 23:19:26 10° NNE visible
09 Aug - 00:57:15 10° W 01:00:46 16° NW 01:04:16 10° N visible
09 Aug - 06:26:23 10° N 06:29:56 16° NE 06:33:31 10° E daylight
09 Aug - 08:11:12 10° NNW 08:17:08 85° ENE 08:23:10 10° SSE daylight
09 Aug - 09:59:59 10° WNW 10:02:42 13° WSW 10:05:25 10° SW daylight
09 Aug - 21:32:51 10° SSE 21:37:04 20° ESE 21:41:14 10° ENE visible
09 Aug - 23:17:07 10° SW 23:22:54 58° WNW 23:28:40 10° NNE visible
10 Aug - 01:08:40 10° NW 01:10:32 11° NW 01:12:23 10° NNW visible
10 Aug - 06:35:04 10° N 06:39:35 22° NE 06:44:11 10° E daylight
10 Aug - 08:20:33 10° NW 08:26:24 65° WSW 08:32:21 10° SSE daylight
10 Aug - 21:41:01 10° S 21:46:08 32° ESE 21:51:12 10° NE visible
10 Aug - 23:26:50 10° WSW 23:32:19 39° NW 23:37:46 10° NNE visible
11 Aug - 06:43:56 10° N 06:49:09 31° NE 06:54:26 10° ESE daylight
11 Aug - 08:30:03 10° NW 08:35:35 43° WSW 08:41:15 10° S daylight
11 Aug - 21:49:38 10° S 21:55:16 48° ESE 22:00:51 10° NE visible
11 Aug - 23:36:52 10° WSW 23:41:49 28° NW 23:46:45 10° N visible
12 Aug - 06:52:59 10° NNW 06:58:38 45° NE 07:04:22 10° SE daylight
12 Aug - 08:39:46 10° NW 08:44:43 28° WSW 08:49:46 10° SSW daylight
12 Aug - 21:58:37 10° SSW 22:04:29 74° ESE 22:10:18 10° NNE visible
12 Aug - 23:47:14 10° W 23:51:25 20° NW 23:55:35 10° N visible
13 Aug - 05:17:53 10° NNE 05:20:32 13° NE 05:23:13 10° ENE visible
13 Aug - 07:02:08 10° NNW 07:08:01 66° ENE 07:14:01 10° SE daylight
13 Aug - 08:49:52 10° WNW 08:53:47 18° WSW 08:57:44 10° SW daylight
13 Aug - 20:24:55 10° SE 20:28:08 15° ESE 20:31:21 10° ENE daylight
13 Aug - 22:07:52 10° SW 22:13:46 75° WNW 22:19:36 10° NNE visible
13 Aug - 23:58:05 10° WNW 00:01:07 14° NW 00:04:09 10° N visible
14 Aug - 05:26:18 10° N 05:30:16 18° NE 05:34:16 10° E visible
14 Aug - 07:11:23 10° NNW 07:17:19 84° WSW 07:23:23 10° SSE daylight
14 Aug - 09:01:11 10° W 09:02:46 11° WSW 09:04:23 10° WSW daylight
14 Aug - 20:32:35 10° SSE 20:37:10 24° ESE 20:41:43 10° NE visible
14 Aug - 22:17:26 10° SW 22:23:07 50° WNW 22:28:48 10° NNE visible
15 Aug - 00:10:31 10° NW 00:10:55 10° NW 00:11:19 10° NNW visible
15 Aug - 05:35:05 10° N 05:39:54 25° NE 05:44:47 10° ESE visible
15 Aug - 07:20:47 10° NW 07:26:34 56° WSW 07:32:28 10° S daylight
15 Aug - 20:40:56 10° S 20:46:16 37° ESE 20:51:32 10° NE visible
15 Aug - 22:27:16 10° WSW 22:32:34 34° NW 22:37:51 10° NNE visible
